owner,sensor,date,latitude,longitude,vertical_datum,wind_speed,wind_to_direction,wind_speed_of_gust,qcFlag 
SCCF RECON,ioos:station:SCCF:53:1,2012-12-01T00:00:00Z,26.6493,-81.8810,2.11,2.5,71.1,-9999.0,'1111122,1111122,1111122' 
SCCF RECON,ioos:station:SCCF:53:1,2012-12-01T00:15:00Z,26.6493,-81.8810,2.11,3.2,69.0,-9999.0,'1111122,1111122,1111122' 
SCCF RECON,ioos:station:SCCF:53:1,2012-12-01T00:30:00Z,26.6493,-81.8810,2.11,2.9,75.6,-9999.0,'1111122,1111122,1111122' 
SCCF RECON,ioos:station:SCCF:53:1,2012-12-01T00:45:00Z,26.6493,-81.8810,2.11,2.3,56.4,-9999.0,'1111122,1111122,1111122' 
SCCF RECON,ioos:station:SCCF:53:1,2012-12-01T01:00:00Z,26.6493,-81.8810,2.11,3.7,52.5,-9999.0,'1111122,1111122,1111122' 
SCCF RECON,ioos:station:SCCF:53:1,2012-12-01T01:15:00Z,26.6493,-81.8810,2.11,3.4,50.4,-9999.0,'1111122,1111122,1111122' 
SCCF RECON,ioos:station:SCCF:53:1,2012-12-01T01:30:00Z,26.6493,-81.8810,2.11,3.7,49.0,-9999.0,'1111122,1111122,1111122' 
SCCF RECON,ioos:station:SCCF:53:1,2012-12-01T01:45:00Z,26.6493,-81.8810,2.11,3.8,40.8,-9999.0,'1111122,1111122,1111122' 
SCCF RECON,ioos:station:SCCF:53:1,2012-12-01T02:00:00Z,26.6493,-81.8810,2.11,2.9,46.2,-9999.0,'1111122,1111122,1111122' 
SCCF RECON,ioos:station:SCCF:53:1,2012-12-01T02:15:00Z,26.6493,-81.8810,2.11,3.4,40.4,-9999.0,'1111122,1111122,1111122' 
SCCF RECON,ioos:station:SCCF:53:1,2012-12-01T02:30:00Z,26.6493,-81.8810,2.11,3.5,59.8,-9999.0,'1111122,1111122,1111122' 
SCCF RECON,ioos:station:SCCF:53:1,2012-12-01T02:45:00Z,26.6493,-81.8810,2.11,5.1,48.6,-9999.0,'1111122,1111122,1111122' 
SCCF RECON,ioos:station:SCCF:53:1,2012-12-01T03:00:00Z,26.6493,-81.8810,2.11,4.5,38.5,-9999.0,'1111122,1111122,1111122' 
SCCF RECON,ioos:station:SCCF:53:1,2012-12-01T03:15:00Z,26.6493,-81.8810,2.11,2.5,43.5,-9999.0,'1111122,1111122,1111122' 
SCCF RECON,ioos:station:SCCF:53:1,2012-12-01T03:30:00Z,26.6493,-81.8810,2.11,3.4,32.0,-9999.0,'1111122,1111122,1111122' 
SCCF RECON,ioos:station:SCCF:53:1,2012-12-01T03:45:00Z,26.6493,-81.8810,2.11,3.1,53.7,-9999.0,'1111122,1111122,1111122' 
SCCF RECON,ioos:station:SCCF:53:1,2012-12-01T04:00:00Z,26.6493,-81.8810,2.11,3.3,53.8,-9999.0,'1111122,1111122,1111122' 
SCCF RECON,ioos:station:SCCF:53:1,2012-12-01T04:15:00Z,26.6493,-81.8810,2.11,3.7,35.2,-9999.0,'1111122,1111122,1111122' 
SCCF RECON,ioos:station:SCCF:53:1,2012-12-01T04:30:00Z,26.6493,-81.8810,2.11,3.1,52.7,-9999.0,'1111122,1111122,1111122' 
SCCF RECON,ioos:station:SCCF:53:1,2012-12-01T04:45:00Z,26.6493,-81.8810,2.11,3.9,39.1,-9999.0,'1111122,1111122,1111122' 
SCCF RECON,ioos:station:SCCF:53:1,2012-12-01T05:00:00Z,26.6493,-81.8810,2.11,3.5,39.6,-9999.0,'1111122,1111122,1111122' 
SCCF RECON,ioos:station:SCCF:53:1,2012-12-01T05:15:00Z,26.6493,-81.8810,2.11,3.1,30.6,-9999.0,'1111122,1111122,1111122' 
SCCF RECON,ioos:station:SCCF:53:1,2012-12-01T05:30:00Z,26.6493,-81.8810,2.11,3.6,34.6,-9999.0,'1111122,1111122,1111122' 
SCCF RECON,ioos:station:SCCF:53:1,2012-12-01T05:45:00Z,26.6493,-81.8810,2.11,3.7,47.3,-9999.0,'1111122,1111122,1111122' 
SCCF RECON,ioos:station:SCCF:53:1,2012-12-01T06:00:00Z,26.6493,-81.8810,2.11,3.5,36.5,-9999.0,'1111122,1111122,1111122' 
SCCF RECON,ioos:station:SCCF:53:1,2012-12-01T06:15:00Z,26.6493,-81.8810,2.11,4.7,39.6,-9999.0,'1111122,1111122,1111122' 
SCCF RECON,ioos:station:SCCF:53:1,2012-12-01T06:30:00Z,26.6493,-81.8810,2.11,3.9,45.2,-9999.0,'1111122,1111122,1111122' 
SCCF RECON,ioos:station:SCCF:53:1,2012-12-01T06:45:00Z,26.6493,-81.8810,2.11,4.0,18.9,-9999.0,'1111122,1111122,1111122' 
SCCF RECON,ioos:station:SCCF:53:1,2012-12-01T07:00:00Z,26.6493,-81.8810,2.11,2.4,34.3,-9999.0,'1111122,1111122,1111122' 
SCCF RECON,ioos:station:SCCF:53:1,2012-12-01T07:15:00Z,26.6493,-81.8810,2.11,3.2,31.3,-9999.0,'1111122,1111122,1111122' 
SCCF RECON,ioos:station:SCCF:53:1,2012-12-01T07:30:00Z,26.6493,-81.8810,2.11,3.8,27.8,-9999.0,'1111122,1111122,1111122' 
SCCF RECON,ioos:station:SCCF:53:1,2012-12-01T07:45:00Z,26.6493,-81.8810,2.11,4.6,36.7,-9999.0,'1111122,1111122,1111122' 
SCCF RECON,ioos:station:SCCF:53:1,2012-12-01T08:00:00Z,26.6493,-81.8810,2.11,4.3,41.5,-9999.0,'1111122,1111122,1111122' 
SCCF RECON,ioos:station:SCCF:53:1,2012-12-01T08:15:00Z,26.6493,-81.8810,2.11,4.9,41.7,-9999.0,'1111122,1111122,1111122' 
SCCF RECON,ioos:station:SCCF:53:1,2012-12-01T08:30:00Z,26.6493,-81.8810,2.11,3.9,50.9,-9999.0,'1111122,1111122,1111122' 
SCCF RECON,ioos:station:SCCF:53:1,2012-12-01T08:45:00Z,26.6493,-81.8810,2.11,3.8,48.6,-9999.0,'1111122,1111122,1111122' 
SCCF RECON,ioos:station:SCCF:53:1,2012-12-01T09:00:00Z,26.6493,-81.8810,2.11,4.0,44.4,-9999.0,'1111122,1111122,1111122' 
SCCF RECON,ioos:station:SCCF:53:1,2012-12-01T09:15:00Z,26.6493,-81.8810,2.11,3.9,42.8,-9999.0,'1111122,1111122,1111122' 
SCCF RECON,ioos:station:SCCF:53:1,2012-12-01T09:30:00Z,26.6493,-81.8810,2.11,4.2,40.1,-9999.0,'1111122,1111122,1111122' 
SCCF RECON,ioos:station:SCCF:53:1,2012-12-01T09:45:00Z,26.6493,-81.8810,2.11,4.4,38.2,-9999.0,'1111122,1111122,1111122' 
SCCF RECON,ioos:station:SCCF:53:1,2012-12-01T10:00:00Z,26.6493,-81.8810,2.11,3.6,40.1,-9999.0,'1111122,1111122,1111122' 
SCCF RECON,ioos:station:SCCF:53:1,2012-12-01T10:15:00Z,26.6493,-81.8810,2.11,3.8,41.3,-9999.0,'1111122,1111122,1111122' 
SCCF RECON,ioos:station:SCCF:53:1,2012-12-01T10:30:00Z,26.6493,-81.8810,2.11,3.9,44.8,-9999.0,'1111122,1111122,1111122' 
SCCF RECON,ioos:station:SCCF:53:1,2012-12-01T10:45:00Z,26.6493,-81.8810,2.11,3.6,50.1,-9999.0,'1111122,1111122,1111122' 
SCCF RECON,ioos:station:SCCF:53:1,2012-12-01T11:00:00Z,26.6493,-81.8810,2.11,4.4,50.9,-9999.0,'1111122,1111122,1111122' 
SCCF RECON,ioos:station:SCCF:53:1,2012-12-01T11:15:00Z,26.6493,-81.8810,2.11,4.7,44.2,-9999.0,'1111122,1111122,1111122' 
SCCF RECON,ioos:station:SCCF:53:1,2012-12-01T11:30:00Z,26.6493,-81.8810,2.11,3.1,27.5,-9999.0,'1111122,1111122,1111122' 
SCCF RECON,ioos:station:SCCF:53:1,2012-12-01T11:45:00Z,26.6493,-81.8810,2.11,4.3,35.9,-9999.0,'1111122,1111122,1111122' 
SCCF RECON,ioos:station:SCCF:53:1,2012-12-01T12:00:00Z,26.6493,-81.8810,2.11,4.0,42.8,-9999.0,'1111122,1111122,1111122' 
SCCF RECON,ioos:station:SCCF:53:1,2012-12-01T12:15:00Z,26.6493,-81.8810,2.11,3.5,45.4,-9999.0,'1111122,1111122,1111122' 
SCCF RECON,ioos:station:SCCF:53:1,2012-12-01T12:30:00Z,26.6493,-81.8810,2.11,4.2,43.6,-9999.0,'1111122,1111122,1111122' 
SCCF RECON,ioos:station:SCCF:53:1,2012-12-01T12:45:00Z,26.6493,-81.8810,2.11,4.9,44.1,-9999.0,'1111122,1111122,1111122' 
SCCF RECON,ioos:station:SCCF:53:1,2012-12-01T13:00:00Z,26.6493,-81.8810,2.11,4.0,45.7,-9999.0,'1111122,1111122,1111122' 
SCCF RECON,ioos:station:SCCF:53:1,2012-12-01T13:15:00Z,26.6493,-81.8810,2.11,3.8,48.7,-9999.0,'1111122,1111122,1111122' 
SCCF RECON,ioos:station:SCCF:53:1,2012-12-01T13:30:00Z,26.6493,-81.8810,2.11,4.4,45.2,-9999.0,'1111122,1111122,1111122' 
SCCF RECON,ioos:station:SCCF:53:1,2012-12-01T13:45:00Z,26.6493,-81.8810,2.11,4.3,49.9,-9999.0,'1111122,1111122,1111122' 
SCCF RECON,ioos:station:SCCF:53:1,2012-12-01T14:00:00Z,26.6493,-81.8810,2.11,3.9,48.0,-9999.0,'1111122,1111122,1111122' 
SCCF RECON,ioos:station:SCCF:53:1,2012-12-01T14:15:00Z,26.6493,-81.8810,2.11,3.4,51.5,-9999.0,'1111122,1111122,1111122' 
SCCF RECON,ioos:station:SCCF:53:1,2012-12-01T14:30:00Z,26.6493,-81.8810,2.11,3.6,39.2,-9999.0,'1111122,1111122,1111122' 
SCCF RECON,ioos:station:SCCF:53:1,2012-12-01T14:45:00Z,26.6493,-81.8810,2.11,2.9,43.5,-9999.0,'1111122,1111122,1111122' 
SCCF RECON,ioos:station:SCCF:53:1,2012-12-01T15:00:00Z,26.6493,-81.8810,2.11,3.8,45.5,-9999.0,'1111122,1111122,1111122' 
SCCF RECON,ioos:station:SCCF:53:1,2012-12-01T15:15:00Z,26.6493,-81.8810,2.11,3.6,60.3,-9999.0,'1111122,1111122,1111122' 
SCCF RECON,ioos:station:SCCF:53:1,2012-12-01T15:30:00Z,26.6493,-81.8810,2.11,3.4,51.6,-9999.0,'1111122,1111122,1111122' 
SCCF RECON,ioos:station:SCCF:53:1,2012-12-01T15:45:00Z,26.6493,-81.8810,2.11,3.6,48.0,-9999.0,'1111122,1111122,1111122' 
SCCF RECON,ioos:station:SCCF:53:1,2012-12-01T16:00:00Z,26.6493,-81.8810,2.11,4.7,45.1,-9999.0,'1111122,1111122,1111122' 
SCCF RECON,ioos:station:SCCF:53:1,2012-12-01T16:15:00Z,26.6493,-81.8810,2.11,4.2,43.4,-9999.0,'1111122,1111122,1111122' 
SCCF RECON,ioos:station:SCCF:53:1,2012-12-01T16:30:00Z,26.6493,-81.8810,2.11,3.6,51.6,-9999.0,'1111122,1111122,1111122' 
SCCF RECON,ioos:station:SCCF:53:1,2012-12-01T16:45:00Z,26.6493,-81.8810,2.11,5.0,36.5,-9999.0,'1111122,1111122,1111122' 
SCCF RECON,ioos:station:SCCF:53:1,2012-12-01T17:00:00Z,26.6493,-81.8810,2.11,5.2,39.0,-9999.0,'1111122,1111122,1111122' 
SCCF RECON,ioos:station:SCCF:53:1,2012-12-01T17:15:00Z,26.6493,-81.8810,2.11,3.9,51.0,-9999.0,'1111122,1111122,1111122' 
SCCF RECON,ioos:station:SCCF:53:1,2012-12-01T17:30:00Z,26.6493,-81.8810,2.11,4.9,44.5,-9999.0,'1111122,1111122,1111122' 
SCCF RECON,ioos:station:SCCF:53:1,2012-12-01T17:45:00Z,26.6493,-81.8810,2.11,4.6,30.1,-9999.0,'1111122,1111122,1111122' 
SCCF RECON,ioos:station:SCCF:53:1,2012-12-01T18:00:00Z,26.6493,-81.8810,2.11,3.7,50.5,-9999.0,'1111122,1111122,1111122' 
SCCF RECON,ioos:station:SCCF:53:1,2012-12-01T18:15:00Z,26.6493,-81.8810,2.11,4.6,35.2,-9999.0,'1111122,1111122,1111122' 
SCCF RECON,ioos:station:SCCF:53:1,2012-12-01T18:30:00Z,26.6493,-81.8810,2.11,5.2,37.0,-9999.0,'1111122,1111122,1111122' 
SCCF RECON,ioos:station:SCCF:53:1,2012-12-01T18:45:00Z,26.6493,-81.8810,2.11,7.1,46.4,-9999.0,'1111122,1111122,1111122' 
SCCF RECON,ioos:station:SCCF:53:1,2012-12-01T19:00:00Z,26.6493,-81.8810,2.11,4.6,42.0,-9999.0,'1111122,1111122,1111122' 
SCCF RECON,ioos:station:SCCF:53:1,2012-12-01T19:15:00Z,26.6493,-81.8810,2.11,4.3,38.8,-9999.0,'1111122,1111122,1111122' 
SCCF RECON,ioos:station:SCCF:53:1,2012-12-01T19:30:00Z,26.6493,-81.8810,2.11,5.2,32.7,-9999.0,'1111122,1111122,1111122' 
SCCF RECON,ioos:station:SCCF:53:1,2012-12-01T19:45:00Z,26.6493,-81.8810,2.11,3.6,62.6,-9999.0,'1111122,1111122,1111122' 
SCCF RECON,ioos:station:SCCF:53:1,2012-12-01T20:00:00Z,26.6493,-81.8810,2.11,3.6,73.3,-9999.0,'1111122,1111122,1111122' 
SCCF RECON,ioos:station:SCCF:53:1,2012-12-01T20:15:00Z,26.6493,-81.8810,2.11,5.2,63.3,-9999.0,'1111122,1111122,1111122' 
SCCF RECON,ioos:station:SCCF:53:1,2012-12-01T20:30:00Z,26.6493,-81.8810,2.11,3.1,53.6,-9999.0,'1111122,1111122,1111122' 
SCCF RECON,ioos:station:SCCF:53:1,2012-12-01T20:45:00Z,26.6493,-81.8810,2.11,6.4,75.0,-9999.0,'1111122,1111122,1111122' 
SCCF RECON,ioos:station:SCCF:53:1,2012-12-01T21:00:00Z,26.6493,-81.8810,2.11,5.2,80.5,-9999.0,'1111122,1111122,1111122' 
SCCF RECON,ioos:station:SCCF:53:1,2012-12-01T21:15:00Z,26.6493,-81.8810,2.11,6.2,58.6,-9999.0,'1111122,1111122,1111122' 
SCCF RECON,ioos:station:SCCF:53:1,2012-12-01T21:30:00Z,26.6493,-81.8810,2.11,5.9,85.9,-9999.0,'1111122,1111122,1111122' 
SCCF RECON,ioos:station:SCCF:53:1,2012-12-01T21:45:00Z,26.6493,-81.8810,2.11,5.9,97.8,-9999.0,'1111122,1111122,1111122' 
SCCF RECON,ioos:station:SCCF:53:1,2012-12-01T22:00:00Z,26.6493,-81.8810,2.11,4.0,63.2,-9999.0,'1111122,1111122,1111122' 
SCCF RECON,ioos:station:SCCF:53:1,2012-12-01T22:15:00Z,26.6493,-81.8810,2.11,5.2,64.5,-9999.0,'1111122,1111122,1111122' 
SCCF RECON,ioos:station:SCCF:53:1,2012-12-01T22:30:00Z,26.6493,-81.8810,2.11,4.4,85.1,-9999.0,'1111122,1111122,1111122' 
SCCF RECON,ioos:station:SCCF:53:1,2012-12-01T22:45:00Z,26.6493,-81.8810,2.11,3.8,73.3,-9999.0,'1111122,1111122,1111122' 
SCCF RECON,ioos:station:SCCF:53:1,2012-12-01T23:00:00Z,26.6493,-81.8810,2.11,4.7,91.0,-9999.0,'1111122,1111122,1111122' 
SCCF RECON,ioos:station:SCCF:53:1,2012-12-01T23:15:00Z,26.6493,-81.8810,2.11,3.2,66.8,-9999.0,'1111122,1111122,1111122' 
SCCF RECON,ioos:station:SCCF:53:1,2012-12-01T23:30:00Z,26.6493,-81.8810,2.11,3.0,81.4,-9999.0,'1111122,1111122,1111122' 
SCCF RECON,ioos:station:SCCF:53:1,2012-12-01T23:45:00Z,26.6493,-81.8810,2.11,2.6,82.9,-9999.0,'1111122,1111122,1111122' 
SCCF RECON,ioos:station:SCCF:53:1,2012-12-02T00:00:00Z,26.6493,-81.8810,2.11,2.9,79.3,-9999.0,'1111122,1111122,1111122' 
SCCF RECON,ioos:station:SCCF:53:1,2012-12-02T00:15:00Z,26.6493,-81.8810,2.11,3.0,68.5,-9999.0,'1111122,1111122,1111122' 
SCCF RECON,ioos:station:SCCF:53:1,2012-12-02T00:30:00Z,26.6493,-81.8810,2.11,3.1,72.1,-9999.0,'1111122,1111122,1111122' 
SCCF RECON,ioos:station:SCCF:53:1,2012-12-02T00:45:00Z,26.6493,-81.8810,2.11,3.5,73.2,-9999.0,'1111122,1111122,1111122' 
SCCF RECON,ioos:station:SCCF:53:1,2012-12-02T01:00:00Z,26.6493,-81.8810,2.11,4.6,63.3,-9999.0,'1111122,1111122,1111122' 
SCCF RECON,ioos:station:SCCF:53:1,2012-12-02T01:15:00Z,26.6493,-81.8810,2.11,5.1,59.2,-9999.0,'1111122,1111122,1111122' 
SCCF RECON,ioos:station:SCCF:53:1,2012-12-02T01:30:00Z,26.6493,-81.8810,2.11,4.8,63.2,-9999.0,'1111122,1111122,1111122' 
SCCF RECON,ioos:station:SCCF:53:1,2012-12-02T01:45:00Z,26.6493,-81.8810,2.11,4.5,54.5,-9999.0,'1111122,1111122,1111122' 
SCCF RECON,ioos:station:SCCF:53:1,2012-12-02T02:00:00Z,26.6493,-81.8810,2.11,3.3,80.1,-9999.0,'1111122,1111122,1111122' 
SCCF RECON,ioos:station:SCCF:53:1,2012-12-02T02:15:00Z,26.6493,-81.8810,2.11,3.7,71.3,-9999.0,'1111122,1111122,1111122' 
SCCF RECON,ioos:station:SCCF:53:1,2012-12-02T02:30:00Z,26.6493,-81.8810,2.11,4.3,48.2,-9999.0,'1111122,1111122,1111122' 
SCCF RECON,ioos:station:SCCF:53:1,2012-12-02T02:45:00Z,26.6493,-81.8810,2.11,4.2,47.2,-9999.0,'1111122,1111122,1111122' 
SCCF RECON,ioos:station:SCCF:53:1,2012-12-02T03:00:00Z,26.6493,-81.8810,2.11,4.9,56.2,-9999.0,'1111122,1111122,1111122' 
SCCF RECON,ioos:station:SCCF:53:1,2012-12-02T03:15:00Z,26.6493,-81.8810,2.11,3.5,43.8,-9999.0,'1111122,1111122,1111122' 
SCCF RECON,ioos:station:SCCF:53:1,2012-12-02T03:30:00Z,26.6493,-81.8810,2.11,4.1,44.3,-9999.0,'1111122,1111122,1111122' 
SCCF RECON,ioos:station:SCCF:53:1,2012-12-02T03:45:00Z,26.6493,-81.8810,2.11,3.5,34.2,-9999.0,'1111122,1111122,1111122' 
SCCF RECON,ioos:station:SCCF:53:1,2012-12-02T04:00:00Z,26.6493,-81.8810,2.11,3.9,41.3,-9999.0,'1111122,1111122,1111122' 
SCCF RECON,ioos:station:SCCF:53:1,2012-12-02T04:15:00Z,26.6493,-81.8810,2.11,4.4,37.3,-9999.0,'1111122,1111122,1111122' 
SCCF RECON,ioos:station:SCCF:53:1,2012-12-02T04:30:00Z,26.6493,-81.8810,2.11,4.1,32.3,-9999.0,'1111122,1111122,1111122' 
SCCF RECON,ioos:station:SCCF:53:1,2012-12-02T04:45:00Z,26.6493,-81.8810,2.11,3.8,35.7,-9999.0,'1111122,1111122,1111122' 
SCCF RECON,ioos:station:SCCF:53:1,2012-12-02T05:00:00Z,26.6493,-81.8810,2.11,3.5,38.2,-9999.0,'1111122,1111122,1111122' 
SCCF RECON,ioos:station:SCCF:53:1,2012-12-02T05:15:00Z,26.6493,-81.8810,2.11,3.8,34.6,-9999.0,'1111122,1111122,1111122' 
SCCF RECON,ioos:station:SCCF:53:1,2012-12-02T05:30:00Z,26.6493,-81.8810,2.11,3.9,32.2,-9999.0,'1111122,1111122,1111122' 
SCCF RECON,ioos:station:SCCF:53:1,2012-12-02T05:45:00Z,26.6493,-81.8810,2.11,4.1,49.1,-9999.0,'1111122,1111122,1111122' 
SCCF RECON,ioos:station:SCCF:53:1,2012-12-02T06:00:00Z,26.6493,-81.8810,2.11,2.7,46.8,-9999.0,'1111122,1111122,1111122' 
SCCF RECON,ioos:station:SCCF:53:1,2012-12-02T06:15:00Z,26.6493,-81.8810,2.11,3.1,50.0,-9999.0,'1111122,1111122,1111122' 
SCCF RECON,ioos:station:SCCF:53:1,2012-12-02T06:30:00Z,26.6493,-81.8810,2.11,1.5,76.2,-9999.0,'1111122,1111122,1111122' 
SCCF RECON,ioos:station:SCCF:53:1,2012-12-02T06:45:00Z,26.6493,-81.8810,2.11,3.7,46.0,-9999.0,'1111122,1111122,1111122' 
SCCF RECON,ioos:station:SCCF:53:1,2012-12-02T07:00:00Z,26.6493,-81.8810,2.11,2.6,34.7,-9999.0,'1111122,1111122,1111122' 
SCCF RECON,ioos:station:SCCF:53:1,2012-12-02T07:15:00Z,26.6493,-81.8810,2.11,2.6,28.8,-9999.0,'1111122,1111122,1111122' 
SCCF RECON,ioos:station:SCCF:53:1,2012-12-02T07:30:00Z,26.6493,-81.8810,2.11,3.0,35.1,-9999.0,'1111122,1111122,1111122' 
SCCF RECON,ioos:station:SCCF:53:1,2012-12-02T07:45:00Z,26.6493,-81.8810,2.11,3.7,39.3,-9999.0,'1111122,1111122,1111122' 
SCCF RECON,ioos:station:SCCF:53:1,2012-12-02T08:00:00Z,26.6493,-81.8810,2.11,4.0,35.1,-9999.0,'1111122,1111122,1111122' 
SCCF RECON,ioos:station:SCCF:53:1,2012-12-02T08:15:00Z,26.6493,-81.8810,2.11,3.2,22.4,-9999.0,'1111122,1111122,1111122' 
SCCF RECON,ioos:station:SCCF:53:1,2012-12-02T08:30:00Z,26.6493,-81.8810,2.11,3.0,36.4,-9999.0,'1111122,1111122,1111122' 
SCCF RECON,ioos:station:SCCF:53:1,2012-12-02T08:45:00Z,26.6493,-81.8810,2.11,3.6,44.9,-9999.0,'1111122,1111122,1111122' 
SCCF RECON,ioos:station:SCCF:53:1,2012-12-02T09:00:00Z,26.6493,-81.8810,2.11,3.7,38.4,-9999.0,'1111122,1111122,1111122' 
SCCF RECON,ioos:station:SCCF:53:1,2012-12-02T09:15:00Z,26.6493,-81.8810,2.11,3.4,39.5,-9999.0,'1111122,1111122,1111122' 
SCCF RECON,ioos:station:SCCF:53:1,2012-12-02T09:30:00Z,26.6493,-81.8810,2.11,2.7,45.6,-9999.0,'1111122,1111122,1111122' 
SCCF RECON,ioos:station:SCCF:53:1,2012-12-02T09:45:00Z,26.6493,-81.8810,2.11,4.4,44.2,-9999.0,'1111122,1111122,1111122' 
SCCF RECON,ioos:station:SCCF:53:1,2012-12-02T10:00:00Z,26.6493,-81.8810,2.11,3.4,53.1,-9999.0,'1111122,1111122,1111122' 
SCCF RECON,ioos:station:SCCF:53:1,2012-12-02T10:15:00Z,26.6493,-81.8810,2.11,4.0,42.5,-9999.0,'1111122,1111122,1111122' 
SCCF RECON,ioos:station:SCCF:53:1,2012-12-02T10:30:00Z,26.6493,-81.8810,2.11,3.5,41.4,-9999.0,'1111122,1111122,1111122' 
SCCF RECON,ioos:station:SCCF:53:1,2012-12-02T10:45:00Z,26.6493,-81.8810,2.11,3.6,35.1,-9999.0,'1111122,1111122,1111122' 
SCCF RECON,ioos:station:SCCF:53:1,2012-12-02T11:00:00Z,26.6493,-81.8810,2.11,4.1,37.7,-9999.0,'1111122,1111122,1111122' 
SCCF RECON,ioos:station:SCCF:53:1,2012-12-02T11:15:00Z,26.6493,-81.8810,2.11,3.7,37.5,-9999.0,'1111122,1111122,1111122' 
SCCF RECON,ioos:station:SCCF:53:1,2012-12-02T11:30:00Z,26.6493,-81.8810,2.11,3.3,40.4,-9999.0,'1111122,1111122,1111122' 
SCCF RECON,ioos:station:SCCF:53:1,2012-12-02T11:45:00Z,26.6493,-81.8810,2.11,3.3,46.7,-9999.0,'1111122,1111122,1111122' 
SCCF RECON,ioos:station:SCCF:53:1,2012-12-02T12:00:00Z,26.6493,-81.8810,2.11,3.6,29.9,-9999.0,'1111122,1111122,1111122' 
SCCF RECON,ioos:station:SCCF:53:1,2012-12-02T12:15:00Z,26.6493,-81.8810,2.11,2.8,35.9,-9999.0,'1111122,1111122,1111122' 
SCCF RECON,ioos:station:SCCF:53:1,2012-12-02T12:30:00Z,26.6493,-81.8810,2.11,3.6,35.5,-9999.0,'1111122,1111122,1111122' 
SCCF RECON,ioos:station:SCCF:53:1,2012-12-02T12:45:00Z,26.6493,-81.8810,2.11,3.5,52.1,-9999.0,'1111122,1111122,1111122' 
SCCF RECON,ioos:station:SCCF:53:1,2012-12-02T13:00:00Z,26.6493,-81.8810,2.11,3.5,45.5,-9999.0,'1111122,1111122,1111122' 
SCCF RECON,ioos:station:SCCF:53:1,2012-12-02T13:15:00Z,26.6493,-81.8810,2.11,3.4,44.2,-9999.0,'1111122,1111122,1111122' 
SCCF RECON,ioos:station:SCCF:53:1,2012-12-02T13:30:00Z,26.6493,-81.8810,2.11,3.3,39.0,-9999.0,'1111122,1111122,1111122' 
SCCF RECON,ioos:station:SCCF:53:1,2012-12-02T13:45:00Z,26.6493,-81.8810,2.11,2.1,39.9,-9999.0,'1111122,1111122,1111122' 
SCCF RECON,ioos:station:SCCF:53:1,2012-12-02T14:00:00Z,26.6493,-81.8810,2.11,2.8,37.5,-9999.0,'1111122,1111122,1111122' 
SCCF RECON,ioos:station:SCCF:53:1,2012-12-02T14:15:00Z,26.6493,-81.8810,2.11,4.0,40.7,-9999.0,'1111122,1111122,1111122' 
SCCF RECON,ioos:station:SCCF:53:1,2012-12-02T14:30:00Z,26.6493,-81.8810,2.11,3.5,45.0,-9999.0,'1111122,1111122,1111122' 
SCCF RECON,ioos:station:SCCF:53:1,2012-12-02T14:45:00Z,26.6493,-81.8810,2.11,3.1,45.2,-9999.0,'1111122,1111122,1111122' 
SCCF RECON,ioos:station:SCCF:53:1,2012-12-02T15:00:00Z,26.6493,-81.8810,2.11,3.5,43.2,-9999.0,'1111122,1111122,1111122' 
SCCF RECON,ioos:station:SCCF:53:1,2012-12-02T15:15:00Z,26.6493,-81.8810,2.11,3.5,46.4,-9999.0,'1111122,1111122,1111122' 
SCCF RECON,ioos:station:SCCF:53:1,2012-12-02T15:30:00Z,26.6493,-81.8810,2.11,3.8,38.9,-9999.0,'1111122,1111122,1111122' 
SCCF RECON,ioos:station:SCCF:53:1,2012-12-02T15:45:00Z,26.6493,-81.8810,2.11,4.3,54.9,-9999.0,'1111122,1111122,1111122' 
SCCF RECON,ioos:station:SCCF:53:1,2012-12-02T16:00:00Z,26.6493,-81.8810,2.11,4.9,53.1,-9999.0,'1111122,1111122,1111122' 
SCCF RECON,ioos:station:SCCF:53:1,2012-12-02T16:15:00Z,26.6493,-81.8810,2.11,4.4,52.5,-9999.0,'1111122,1111122,1111122' 
SCCF RECON,ioos:station:SCCF:53:1,2012-12-02T16:30:00Z,26.6493,-81.8810,2.11,5.0,77.4,-9999.0,'1111122,1111122,1111122' 
SCCF RECON,ioos:station:SCCF:53:1,2012-12-02T16:45:00Z,26.6493,-81.8810,2.11,3.0,64.0,-9999.0,'1111122,1111122,1111122' 
SCCF RECON,ioos:station:SCCF:53:1,2012-12-02T17:00:00Z,26.6493,-81.8810,2.11,6.4,51.1,-9999.0,'1111122,1111122,1111122' 
SCCF RECON,ioos:station:SCCF:53:1,2012-12-02T17:15:00Z,26.6493,-81.8810,2.11,6.7,46.9,-9999.0,'1111122,1111122,1111122' 
SCCF RECON,ioos:station:SCCF:53:1,2012-12-02T17:30:00Z,26.6493,-81.8810,2.11,4.3,61.6,-9999.0,'1111122,1111122,1111122' 
SCCF RECON,ioos:station:SCCF:53:1,2012-12-02T17:45:00Z,26.6493,-81.8810,2.11,6.0,67.3,-9999.0,'1111122,1111122,1111122' 
SCCF RECON,ioos:station:SCCF:53:1,2012-12-02T18:00:00Z,26.6493,-81.8810,2.11,7.0,53.1,-9999.0,'1111122,1111122,1111122' 
SCCF RECON,ioos:station:SCCF:53:1,2012-12-02T18:15:00Z,26.6493,-81.8810,2.11,3.9,60.4,-9999.0,'1111122,1111122,1111122' 
SCCF RECON,ioos:station:SCCF:53:1,2012-12-02T18:30:00Z,26.6493,-81.8810,2.11,3.2,97.6,-9999.0,'1111122,1111122,1111122' 
SCCF RECON,ioos:station:SCCF:53:1,2012-12-02T18:45:00Z,26.6493,-81.8810,2.11,4.2,66.2,-9999.0,'1111122,1111122,1111122' 
SCCF RECON,ioos:station:SCCF:53:1,2012-12-02T19:00:00Z,26.6493,-81.8810,2.11,4.8,34.9,-9999.0,'1111122,1111122,1111122' 
SCCF RECON,ioos:station:SCCF:53:1,2012-12-02T19:15:00Z,26.6493,-81.8810,2.11,4.8,68.4,-9999.0,'1111122,1111122,1111122' 
SCCF RECON,ioos:station:SCCF:53:1,2012-12-02T19:30:00Z,26.6493,-81.8810,2.11,6.5,43.6,-9999.0,'1111122,1111122,1111122' 
SCCF RECON,ioos:station:SCCF:53:1,2012-12-02T19:45:00Z,26.6493,-81.8810,2.11,5.8,62.9,-9999.0,'1111122,1111122,1111122' 
SCCF RECON,ioos:station:SCCF:53:1,2012-12-02T20:00:00Z,26.6493,-81.8810,2.11,5.6,46.8,-9999.0,'1111122,1111122,1111122' 
SCCF RECON,ioos:station:SCCF:53:1,2012-12-02T20:15:00Z,26.6493,-81.8810,2.11,6.7,44.5,-9999.0,'1111122,1111122,1111122' 
SCCF RECON,ioos:station:SCCF:53:1,2012-12-02T20:30:00Z,26.6493,-81.8810,2.11,3.8,45.7,-9999.0,'1111122,1111122,1111122' 
SCCF RECON,ioos:station:SCCF:53:1,2012-12-02T20:45:00Z,26.6493,-81.8810,2.11,4.2,64.9,-9999.0,'1111122,1111122,1111122' 
SCCF RECON,ioos:station:SCCF:53:1,2012-12-02T21:00:00Z,26.6493,-81.8810,2.11,4.9,57.3,-9999.0,'1111122,1111122,1111122' 
SCCF RECON,ioos:station:SCCF:53:1,2012-12-02T21:15:00Z,26.6493,-81.8810,2.11,3.5,81.4,-9999.0,'1111122,1111122,1111122' 
SCCF RECON,ioos:station:SCCF:53:1,2012-12-02T21:30:00Z,26.6493,-81.8810,2.11,4.4,87.3,-9999.0,'1111122,1111122,1111122' 
SCCF RECON,ioos:station:SCCF:53:1,2012-12-02T21:45:00Z,26.6493,-81.8810,2.11,2.9,59.7,-9999.0,'1111122,1111122,1111122' 
SCCF RECON,ioos:station:SCCF:53:1,2012-12-02T22:00:00Z,26.6493,-81.8810,2.11,3.5,72.3,-9999.0,'1111122,1111122,1111122' 
SCCF RECON,ioos:station:SCCF:53:1,2012-12-02T22:15:00Z,26.6493,-81.8810,2.11,3.8,49.1,-9999.0,'1111122,1111122,1111122' 
SCCF RECON,ioos:station:SCCF:53:1,2012-12-02T22:30:00Z,26.6493,-81.8810,2.11,4.4,69.5,-9999.0,'1111122,1111122,1111122' 
SCCF RECON,ioos:station:SCCF:53:1,2012-12-02T22:45:00Z,26.6493,-81.8810,2.11,4.8,70.5,-9999.0,'1111122,1111122,1111122' 
SCCF RECON,ioos:station:SCCF:53:1,2012-12-02T23:00:00Z,26.6493,-81.8810,2.11,3.6,71.5,-9999.0,'1111122,1111122,1111122' 
SCCF RECON,ioos:station:SCCF:53:1,2012-12-02T23:15:00Z,26.6493,-81.8810,2.11,4.1,79.6,-9999.0,'1111122,1111122,1111122' 
SCCF RECON,ioos:station:SCCF:53:1,2012-12-02T23:30:00Z,26.6493,-81.8810,2.11,6.7,62.0,-9999.0,'1111122,1111122,1111122' 
SCCF RECON,ioos:station:SCCF:53:1,2012-12-02T23:45:00Z,26.6493,-81.8810,2.11,5.0,69.5,-9999.0,'1111122,1111122,1111122' 
SCCF RECON,ioos:station:SCCF:53:1,2012-12-03T00:00:00Z,26.6493,-81.8810,2.11,3.9,69.8,-9999.0,'1111122,1111122,1111122' 
SCCF RECON,ioos:station:SCCF:53:1,2012-12-03T00:15:00Z,26.6493,-81.8810,2.11,4.6,80.2,-9999.0,'1111122,1111122,1111122' 
SCCF RECON,ioos:station:SCCF:53:1,2012-12-03T00:30:00Z,26.6493,-81.8810,2.11,3.3,66.9,-9999.0,'1111122,1111122,1111122' 
SCCF RECON,ioos:station:SCCF:53:1,2012-12-03T00:45:00Z,26.6493,-81.8810,2.11,2.4,74.2,-9999.0,'1111122,1111122,1111122' 
SCCF RECON,ioos:station:SCCF:53:1,2012-12-03T01:00:00Z,26.6493,-81.8810,2.11,2.8,72.0,-9999.0,'1111122,1111122,1111122' 